Location: Wiesbaden
(50.0830°N, 8.2500°E)
Time: 16:37:28
(UTC+01:00)

ISS - Pass Details

Date: 24 January 2020
Orbit: 415 x 421 km, 51.6° (Epoch: 18 January)

Event Time Altitude Azimuth Distance (km) Brightness Sun altitude
Rises 19:59:00 0° 259° (W) 2,362 1.2 -27.3°
Reaches altitude 10° 20:01:06 10° 260° (W) 1,498 0.0 -27.7°
Enters shadow 20:02:20 21° 263° (W) 1,006 -1.1 -27.9°
